Capitol Logistics 231


KPHX
Phoenix Sky Harbor International Airport
Phoenix, Arizona, US
KRFD
Chicago/Rockford International Airport
Rockford, Illinois, US

Activity Log

Date Flight Route Aircraft Duration
01/07/2020 CPX231 SJN9 ABQ J18 SLN J96 IRK J26 BDF J105 VORIN B763 2h 52m
05/10/2019 CPX231 FTHLS5 ABQ FTI J18 MZV B763 2h 50m

Route Details

Aircraft Information
Primary: Boeing 767-300BDSF
Backup: Not Available
Route Data
Distance: 1204nm
Sched. Duration: 2h 41m
Avg. Duration: 2h 51m (+11m)
Times Flown: 2
Recm'd Route: BROAK1 MAXXO ACH J231 LBL J19 ICT J26 IRK J232 MZV PLL
Planned Altitude: 35,000ft
Origin Wx: KPHX 261251Z 08007KT 10SM FEW120 24/M01 A2982 RMK AO2 SLP079 T02391011
Dest. Wx: KRFD 261254Z 14006KT 10SM BKN170 OVC250 22/18 A2999 RMK AO2 SLP150 T02170178
Notes:

Financial History
Total Freight: 133,489lbs
Average Load: 66,745lbs/flt
Fuel Used: 59,887lbs
Avg. Fuel Used: 29,944lbs/flt
Fuel Expense: $48,508
Avg. Fuel Expense: $24,254
Avg. Fuel Cost: $0.81/lbs
Total Gross Income: $192,196
Pilot Pay: $388
Total Expenses: $20,861
Total Revenue: $121,346
Average Revenue: $96,098.12